Location: Alto Pass Reservoir
(37.5801°N, 89.3084°W)
Time: 14:30:28
(UTC+00:00)

Meteor 2-16 Rocket - Pass Details

Date: 08 December 2021
Orbit: 942 x 955 km, 82.6° (Epoch: 19 January)

Event Time Altitude Azimuth Distance (km) Brightness Sun altitude
Rises 23:30:14 0° 354° (N) 3,626 7.3 -10.1°
Reaches altitude 10° 23:32:45 10° 357° (N) 2,679 6.6 -10.6°
Maximum altitude 23:38:53 74° 82° (E) 988 4.4 -11.7°
Drops below altitude 10° 23:44:59 10° 168° (SSE) 2,671 6.9 -12.8°
Sets 23:47:29 0° 170° (S) 3,614 7.6 -13.3°
